Location: Auttagershofen
(48.1940°N, 10.0237°E)
Time: 09:02:19
(UTC+00:00)

Cosmos 1763 Rocket - Pass Details

Date: 18 January 2026
Orbit: 729 x 773 km, 74.0° (Epoch: 14 February)

Event Time Altitude Azimuth Distance (km) Brightness Sun altitude
Exits shadow 06:10:52 - 323° (NW) 2,554 5.7 -8.7°
Reaches altitude 10° 06:11:46 10° 319° (NW) 2,239 5.4 -8.6°
Maximum altitude 06:16:10 31° 259° (WSW) 1,286 4.3 -7.9°
Drops below altitude 10° 06:20:33 10° 198° (SSW) 2,240 6.0 -7.2°
Sets 06:23:07 0° 188° (S) 3,164 6.9 -6.8°
